Location: Mt. Graham
(32.7020°N, 109.8880°W)
Time: 06:25:57
(UTC-07:00)

N. Korean satellite - Visible Passes

Search period start: 25 September 2017 00:00
Search period end: 05 October 2017 00:00
Orbit: 461 x 516 km, 97.2° (Epoch: 24 September)

Date Brightness Start Highest point End Pass type
(mag) Time Alt. Az. Time Alt. Az. Time Alt. Az.
25 Sep 9.0 19:05:42 10° SSW 19:08:57 28° W 19:12:11 10° NW visible
26 Sep 7.3 18:42:01 10° S 18:45:42 61° W 18:49:21 10° NNW visible
28 Sep 10.0 19:31:00 10° SW 19:32:53 13° W 19:34:46 10° WNW visible
29 Sep 9.0 19:06:23 10° SSW 19:09:34 27° W 19:12:44 10° NW visible
30 Sep 7.3 18:42:38 10° S 18:46:17 59° W 18:49:55 10° NNW visible
02 Oct 10.0 19:31:43 10° WSW 19:33:28 13° W 19:35:11 10° WNW visible
03 Oct 9.0 19:07:00 10° SSW 19:10:07 26° W 19:13:13 10° NW visible
04 Oct 7.4 18:43:14 10° S 18:46:51 57° W 18:50:25 10° NNW visible
